This is the latest recevied weather packets stored in our database for station/object IW1QAF-33. If no packets are shown the sender has not sent any weather packets the latest 1 day(s).
| Time | Temp. | Humidity | Pressure | Rain* | Wind** | Luminosity | Snow |
|---|---|---|---|---|---|---|---|
| 1778001887 | 17.78° C | 100% | 1012 hPa | 0 mm | 0 m/s | 4 W/m² | - |
| 1778001283 | 17.78° C | 100% | 1012 hPa | 0 mm | 0 m/s | 6 W/m² | - |
| 1778000679 | 18.33° C | 100% | 1012 hPa | 0 mm | 0.45 m/s, 306° | 7 W/m² | - |
| 1778000075 | 17.78° C | 100% | 1012 hPa | 0 mm | 0.45 m/s, 324° | 7 W/m² | - |
| 1777999471 | 17.78° C | 100% | 1012 hPa | 0 mm | 0.45 m/s, 332° | 10 W/m² | - |
| 1777998867 | 17.22° C | 100% | 1012 hPa | 0 mm | 0 m/s | 11 W/m² | - |
| 1777998263 | 17.78° C | 100% | 1012 hPa | 0 mm | 0.45 m/s, 302° | 6 W/m² | - |
| 1777997659 | 18.33° C | 100% | 1013 hPa | 0 mm | 0.45 m/s, 318° | 9 W/m² | - |
| 1777997055 | 18.33° C | 100% | 1013 hPa | 0 mm | 0.45 m/s, 274° | 12 W/m² | - |
| 1777996451 | 19.44° C | 100% | 1014 hPa | 0 mm | 0.45 m/s, 22° | 17 W/m² | - |
| 1777995847 | 20.56° C | 100% | 1014 hPa | 0 mm | 0 m/s | 22 W/m² | - |
| 1777995243 | 17.22° C | 100% | 1013 hPa | 0 mm | 0.45 m/s, 338° | 31 W/m² | - |
| 1777994639 | 18.89° C | 100% | 1013 hPa | 0 mm | 0.45 m/s, 85° | 24 W/m² | - |
| 1777993432 | 17.78° C | 100% | 1013 hPa | 0 mm | 0 m/s | 13 W/m² | - |
| 1777992827 | 20° C | 100% | 1013 hPa | 0 mm | 0.45 m/s, 87° | 21 W/m² | - |
| 1777991620 | 18.33° C | 100% | 1013 hPa | 0 mm | 0.45 m/s, 17° | 15 W/m² | - |
| 1777991015 | 21.11° C | 100% | 1014 hPa | 0 mm | 0.45 m/s, 12° | 25 W/m² | - |
| 1777989807 | 18.33° C | 100% | 1013 hPa | 0 mm | 0.45 m/s, 22° | 51 W/m² | - |
| 1777988600 | 20° C | 100% | 1013 hPa | 0 mm | 0.45 m/s, 37° | 42 W/m² | - |
| 1777987392 | 18.89° C | 100% | 1013 hPa | 0 mm | 0.45 m/s, 94° | 33 W/m² | - |
| 1777986186 | 16.67° C | 100% | 1012 hPa | 0 mm | 0.89 m/s, 97° | 42 W/m² | - |
| 1777984976 | 18.33° C | 100% | 1013 hPa | 0 mm | 0.89 m/s, 77° | 121 W/m² | - |
| 1777984372 | 19.44° C | 100% | 1013 hPa | 0 mm | 0.89 m/s, 127° | 52 W/m² | - |
| 1777983768 | 18.89° C | 100% | 1013 hPa | 0 mm | 0.45 m/s, 91° | 75 W/m² | - |
| 1777982560 | 16.67° C | 100% | 1011 hPa | 0 mm | 1.34 m/s, 90° | 61 W/m² | - |
* Rain latest hour (hover to see other rain measurements)
** Current wind speed in m/s (hover to see current wind gust speed)